Location: Bittelbronn
(48.4454°N, 8.5870°E)
Time: 09:35:05
(UTC+00:00)

Meteor 2-5 Rocket - Pass Details

Date: 17 August 2024
Orbit: 833 x 910 km, 81.2° (Epoch: 16 September)

Event Time Altitude Azimuth Distance (km) Brightness Sun altitude
Rises 23:58:33 0° 357° (N) 3,477 8.1 -27.9°
Reaches altitude 10° 00:01:45 10° 15° (NNE) 2,549 7.2 -27.8°
Maximum altitude 00:05:49 19° 60° (ENE) 1,981 6.0 -27.7°
Drops below altitude 10° 00:09:55 10° 105° (ESE) 2,571 6.2 -27.6°
Enters shadow 00:10:36 - 110° (ESE) 2,752 6.3 -27.6°
